Other Public Products
Issued by NWS Grand Forks, ND

Home | Current Version | Previous Version | Text Only | Print | Product List | Glossary Off
Versions: 1 2 3 4 5 6 7 8 9 10 11 12 13 14 15 16 17 18 19 20 21 22 23 24 25 26 27 28 29 30 31 32 33 34 35 36 37 38 39 40 41 42 43 44 45 46 47 48 49 50

000
FPUS83 KFGF 070131
OPUFGF
PRAIRIE TO PINES WEATHER ROUNDUP
NATIONAL WEATHER SERVICE EASTERN NORTH DAKOTA/GRAND FORKS ND
800 PM CDT MON JUL 06 2015

 **SATELLITE DATA USED TO AUGMENT SKY COVER AT AUTOMATED STATIONS**
 *****  WEATHER ACROSS EASTERN NORTH DAKOTA  *****

CITY           SKY/WX    TMP DP  RH WIND       PRES   REMARKS
GRAND FORKS    MOSUNNY   62  45  53 N13       30.12S
GRAND FORKS AF MOSUNNY   62  47  57 NE13      30.13S
GRAND CITY NWS   N/A     59 N/A N/A VRB7        N/A
BUXTON         NOT AVBL
DEVILS LAKE    MOSUNNY   63  45  51 N9        30.13S
FARGO          MOSUNNY   64  48  56 N15G23    30.10S
WAHPETON ARPT  CLEAR     63  45  51 N13       30.09S
$$

 *****  WEATHER ACROSS CENTRAL AND WESTERN NORTH DAKOTA  *****

CITY           SKY/WX    TMP DP  RH WIND       PRES   REMARKS
JAMESTOWN      MOSUNNY   64  48  56 N13       30.12F
BISMARCK       PTSUNNY   66  52  60 N10       30.16R HAZE
MINOT          SUNNY     65  45  48 N6        30.15F
MINOT AFB      SUNNY     70  43  37 N6        30.15S
GARRISON         N/A     66  48  52 NE7       30.16S
WILLISTON      SUNNY     70  47  43 NE9       30.16F
DICKINSON      SUNNY     66  52  60 NE9       30.15F HAZE
HETTINGER      SUNNY     69  51  52 N5        30.16F
$$

 *****  OTHER OBSERVATIONS NORTHEAST NORTH DAKOTA  *****

CITY           SKY/WX    TMP DP  RH WIND       PRES   REMARKS
WALHALLA       FAIR      63  46  55 MISG      30.14S
LANGDON        FAIR      61  46  59 N8        30.16R
CAVALIER       FAIR      63  46  55 N7        30.13S
GRAFTON        FAIR      61  48  63 N8        30.14S
CANDO          FAIR      61  45  55 N8        30.15F
FORT TOTTEN      N/A     65  45  49 N6        29.95S
ROLLA          FAIR      59  45  58 N6        30.17S
RUGBY          NOT AVBL
 ***** THE ABOVE OBSERVATIONS ARE NON NWS ARE NOT QUALITY
        CONTROLLED AND MAY MIS-REPORT RAIN FOR SNOW...
$$

 *****  OTHER OBSERVATIONS SOUTHEAST NORTH DAKOTA *****

CITY           SKY/WX    TMP DP  RH WIND       PRES   REMARKS
COOPERSTOWN    NOT AVBL
VALLEY CITY    FAIR      63  46  55 N10G17    30.12S
OAKES            N/A     63  54  72 N14       30.11S
GWINNER        FAIR      64  48  55 N14G20    30.11S
SHEYENNE NWR     N/A     66  47  49 N8        29.95S
BUFFALO        NOT AVBL
WYNDMERE         N/A     64  48  55 VRB12       N/A
 ***** THE ABOVE OBSERVATIONS ARE NON NWS ARE NOT QUALITY
       CONTROLLED AND MAY MIS-REPORT RAIN FOR SNOW...
$$

  *****  WEATHER ACROSS NORTHERN MINNESOTA  *****

CITY           SKY/WX    TMP DP  RH WIND       PRES   REMARKS
FLAG ISLAND    MOSUNNY   61  45  55 N10       30.06F
WARROAD        CLOUDY    57  50  77 NW5       30.10S
ROSEAU         CLOUDY    61  50  67 NW6       30.10S
HALLOCK        SUNNY     63  46  55 NW7       30.11S
THF RVR FALLS  CLOUDY    59  46  63 N9        30.11S
HALSTAD        NOT AVBL
FOSSTON        CLOUDY    57  45  62 CALM      30.11R
BAUDETTE       CLOUDY    58  44  60 N6        30.07R
WASKISH        CLOUDY    57  46  67 N3        30.08R
CROOKSTON      MOSUNNY   61  46  59 N10       30.12S
$$
  *****  WEATHER ACROSS CENTRAL AND WEST MINNESOTA  *****

CITY           SKY/WX    TMP DP  RH WIND       PRES   REMARKS
BEMIDJI        CLOUDY    57  46  66 NW12      30.07S
PARK RAPIDS    PTSUNNY   61  42  49 N14G22    30.07S
WADENA         SUNNY     57  45  62 N10       30.07S
DETROIT LAKES  MOSUNNY   59  45  58 N12G22    30.10R
MOORHEAD       SUNNY     63  48  59 N15       30.11R
FERGUS FALLS   SUNNY     63  46  55 N12G17    30.08S
ELBOW LAKE     FAIR      62  46  56 N16G22    30.07S
MORRIS MN      SUNNY     63  48  59 N17       30.07R
STAPLES        SUNNY     57  45  62 N8        30.06S
WHEATON        SUNNY     61  48  63 N13       30.10R
$$
  *****  WEATHER ELSEWHERE ACROSS MINNESOTA  *****

CITY           SKY/WX    TMP DP  RH WIND       PRES   REMARKS
DULUTH         MOCLDY    62  46  55 N15G22    29.97R
INTRNTL FALLS  CLOUDY    57  43  59 N10       30.05S
ELY            CLOUDY    55  43  62 N9        30.01S
CLOQUET        CLOUDY    61  45  55 NW12G20   29.99R
BRAINERD       CLOUDY    61  45  55 N17G24    30.04S
HIBBING        CLOUDY    59  45  59 N13       30.01S
ALEXANDRIA     PTSUNNY   62  46  55 N12G23    30.08R
SAINT CLOUD    CLEAR     63  47  55 N9G21     30.02R
MINNEAPOLIS    MOCLDY    71  55  56 NW12      29.96R SMOKE
$$

  *****  WEATHER ACROSS SOUTH DAKOTA  *****

CITY           SKY/WX    TMP DP  RH WIND       PRES   REMARKS
SIOUX FALLS    SUNNY     68  54  60 N15G23    30.07R
BROOKINGS      SUNNY     64  52  63 N9G16     30.10R
WATERTOWN      SUNNY     66  51  58 N12       30.08R
HURON          SUNNY     69  55  60 NE10      30.07R HAZE
SISSETON         N/A     65  49  56 N14       30.08R
ABERDEEN       MOSUNNY   69  53  56 N13       30.09S HAZE
MITCHELL       SUNNY     70  56  61 N9        30.08R HAZE
PIERRE         SUNNY     71  54  54 N9        30.09F
MOBRIDGE       SUNNY     72  53  51 N10       30.10F HAZE
RAPID CITY     CLOUDY    68  54  60 N5        30.18S
$$

  *****  SOME WEATHER IN NEARBY STATES *****

CITY           SKY/WX    TMP DP  RH WIND       PRES   REMARKS
GLASGOW MT     SUNNY     73  42  32 S7        30.11F
GREAT FALLS MT SUNNY     73  48  41 NE9       30.08F
CHEYENNE WY    CLOUDY    57  52  83 E7        30.29F HAZE
SCOTTSBLUFF NE CLOUDY    67  54  63 NE3       30.21S HAZE
OMAHA NE       CLOUDY    73  65  75 N10       29.97R HAZE
DES MOINES IA  CLOUDY    72  62  71 N14G24    29.91R HAZE
DAVENPORT IA   HVY RAIN  71  69  93 S12       29.87F FOG
CHICAGO IL     LGT RAIN  79  68  69 S12       29.83F
EAU CLAIRE WI  CLOUDY    64  56  75 N6        29.94R HAZE
LA CROSSE WI   CLOUDY    66  58  75 N17G24    29.92R HAZE
$$

  *****  SOME NATIONAL WEATHER *****

CITY           SKY/WX    TMP DP  RH WIND       PRES   REMARKS
LA GUARDIA NY  MOCLDY    76  63  64 SE12      30.09F
RALEIGH NC     MOCLDY    80  68  66 SW7       30.07S
ATLANTA GA     PTCLDY    79  71  76 SW3       30.11S
NEW ORLEANS LA PTCLDY    85  72  65 S9        30.05F HX  91
OKLAHOMA CITY  MOCLDY    84  71  65 S17G23    29.86R
ALBUQUERQUE NM PTSUNNY   73  57  57 E23G29    30.07S
SALT LAKE CITY PTSUNNY   81  58  45 S10       30.04F
LOS ANGELES CA CLOUDY    66  60  81 SW9       29.97F
BOISE ID       MOSUNNY   92  46  20 W13       29.94F
SEATTLE WA     PTSUNNY   84  51  31 W7        29.97F
$$

*** WEATHER ACROSS MANITOBA...SASKATCHEWAN AND ONTARIO ***
                ***ONTARIO***

CITY           SKY/WX    TMP DP  RH WIND       PRES   REMARKS
GERALDTON      PTCLDY    57  45  62 NW12      29.88S
THUNDER BAY    PTCLDY    61  46  59 NW15G23   29.92R
SIOUX LOOKOUT  CLOUDY    54  45  71 NW8       30.03S
TORONTO        MOCLDY    75  63  64 S6        29.96F
BIG TROUT LK   CLOUDY    55  43  62 NW8       29.91R
PICKLE LAKE    CLOUDY    52  45  76 N6        29.99S
DRYDEN         CLOUDY    54  45  71 NW6       30.04F
KENORA         PTSUNNY   57  45  62 N3        30.07F
$$
                *** MANITOBA***

CITY           SKY/WX    TMP DP  RH WIND       PRES   REMARKS
BRANDON        MOSUNNY   64  43  45 NW6       30.14F
DAUPHIN        SUNNY     66  45  45 E6        30.11F
ISLAND LAKE    MOSUNNY   66  46  48 W7        29.97F
PILOT MOUND      N/A     61  45  55 N5          N/A
THE PAS        MOSUNNY   72  43  35 W8        30.02F
THOMPSON       MOSUNNY   72  46  40 SW9       29.92F
WINNIPEG       MOSUNNY   63  48  59 NW9       30.12S
LYNN LAKE      HAZE      72  43  35 SW7       29.88F VSB 1
CHURCHILL      LGT RAIN  59  46  63 SE10      29.80F
GILLAM         MOSUNNY   68  50  52 W5        29.87
$$
                ***SASKATCHEWAN***

CITY           SKY/WX    TMP DP  RH WIND       PRES   REMARKS
ESTEVAN        SUNNY     66  43  42 NE5       30.17S
KINDERSLEY     MOSUNNY   70  48  46 S6        30.07
LLOYDMINSTER   SUNNY     66  45  45 S7        30.06F
PRINCE ALBERT  CLOUDY    64  46  52 NE3       30.07F
REGINA         MOSUNNY   68  45  42 W3        30.14F


USA.gov is the U.S. government's official web portal to all federal, state and local government web resources and services.